EA7RX-13 Weather Reports


Display with metric or nautical units.
time (UTC)temp
F
wind
direction
speed
MPH
gust
MPH
rain 1hr
in
rain 24hr
in
rain mn
in
humidity
%
barometer
mb
20260508171351 77 0.0 0.0 0.00 0.00 0.00 48 1006.6
20260508170445 77 0.0 0.0 0.00 0.00 0.00 43 1006.6
20260508164352 75 0.0 0.0 0.00 0.00 0.00 48 1006.8
20260508163351 76 0.0 0.0 0.00 0.00 0.00 45 1006.9
20260508162351 75 0.0 0.0 0.00 0.00 0.00 46 1006.9
20260508161351 75 0.0 0.0 0.00 0.00 0.00 48 1007.1
20260508160351 75 0.0 0.0 0.00 0.00 0.00 49 1007.2
20260508155351 76 0.0 0.0 0.00 0.00 0.00 45 1007.2
20260508154352 77 0.0 0.0 0.00 0.00 0.00 47 1007.1
20260508153351 76 0.0 0.0 0.00 0.00 0.00 47 1007.1
20260508152352 76 0.0 0.0 0.00 0.00 0.00 48 1007.3
20260508151352 74 0.0 0.0 0.00 0.00 0.00 46 1007.6
20260508150351 76 0.0 0.0 0.00 0.00 0.00 45 1007.4
20260508145353 76 0.0 0.0 0.00 0.00 0.00 47 1007.6
20260508144351 77 0.0 0.0 0.00 0.00 0.00 46 1007.7
20260508143351 77 0.0 0.0 0.00 0.00 0.00 45 1007.9
20260508142351 75 0.0 0.0 0.00 0.00 0.00 46 1008.1
20260508141351 74 0.0 0.0 0.00 0.00 0.00 49 1008.4
20260508140351 75 0.0 0.0 0.00 0.00 0.00 49 1008.2
20260508135351 77 0.0 0.0 0.00 0.00 0.00 46 1008.0
20260508134351 80 0.0 0.0 0.00 0.00 0.00 43 1007.8
20260508133351 78 0.0 0.0 0.00 0.00 0.00 46 1008.1
20260508132351 77 0.0 0.0 0.00 0.00 0.00 45 1008.2
20260508131351 76 0.0 0.0 0.00 0.00 0.00 49 1008.3
20260508130351 77 0.0 0.0 0.00 0.00 0.00 50 1008.3
20260508125351 82 0.0 0.0 0.00 0.00 0.00 43 1007.8
20260508124351 79 0.0 0.0 0.00 0.00 0.00 47 1008.2
20260508123351 78 0.0 0.0 0.00 0.00 0.00 46 1008.3
20260508122351 78 0.0 0.0 0.00 0.00 0.00 49 1008.5
20260508121351 75 0.0 0.0 0.00 0.00 0.00 53 1008.8
20260508120351 75 0.0 0.0 0.00 0.00 0.00 52 1008.9
20260508115351 80 0.0 0.0 0.00 0.00 0.00 46 1008.6
20260508114351 77 0.0 0.0 0.00 0.00 0.00 52 1009.1
20260508113351 75 0.0 0.0 0.00 0.00 0.00 57 1009.5
20260508112351 75 0.0 0.0 0.00 0.00 0.00 55 1009.6
20260508111351 75 0.0 0.0 0.00 0.00 0.00 59 1009.7
20260508110351 73 0.0 0.0 0.00 0.00 0.00 59 1010.1
20260508105351 74 0.0 0.0 0.00 0.00 0.00 57 1010.2
20260508104351 73 0.0 0.0 0.00 0.00 0.00 62 1010.2
20260508103351 73 0.0 0.0 0.00 0.00 0.00 71 1010.5
20260508102351 70 0.0 0.0 0.00 0.00 0.00 76 1010.7
20260508101351 69 0.0 0.0 0.00 0.00 0.00 76 1010.7
20260508100351 68 0.0 0.0 0.00 0.00 0.00 82 1010.8
20260508095351 69 0.0 0.0 0.00 0.00 0.00 78 1010.6
20260508094351 68 0.0 0.0 0.00 0.00 0.00 77 1010.6
20260508093351 69 0.0 0.0 0.00 0.00 0.00 78 1010.5
20260508092351 69 0.0 0.0 0.00 0.00 0.00 74 1010.5
20260508091351 70 0.0 0.0 0.00 0.00 0.00 67 1010.2
20260508090351 70 0.0 0.0 0.00 0.00 0.00 66 1010.0
20260508085351 71 0.0 0.0 0.00 0.00 0.00 69 1010.0
20260508084351 69 0.0 0.0 0.00 0.00 0.00 69 1010.0
20260508083351 69 0.0 0.0 0.00 0.00 0.00 75 1010.0
20260508082351 67 0.0 0.0 0.00 0.00 0.00 78 1010.2
20260508081351 65 0.0 0.0 0.00 0.00 0.00 92 1010.4
20260508080351 65 0.0 0.0 0.00 0.00 0.00 10 1010.4
20260508075351 64 0.0 0.0 0.00 0.00 0.00 10 1010.5
20260508074351 63 0.0 0.0 0.00 0.00 0.00 10 1010.8
20260508073351 63 0.0 0.0 0.00 0.00 0.00 10 1010.9
20260508072351 62 0.0 0.0 0.00 0.00 0.00 10 1011.1
20260508071351 60 0.0 0.0 0.00 0.00 0.00 10 1011.2
20260508070351 60 0.0 0.0 0.00 0.00 0.00 10 1011.3
20260508065351 59 0.0 0.0 0.00 0.00 0.00 10 1011.1
20260508064351 60 0.0 0.0 0.00 0.00 0.00 10 1010.8
20260508063351 60 0.0 0.0 0.00 0.00 0.00 10 1010.7
20260508062351 60 0.0 0.0 0.00 0.00 0.00 10 1010.4
20260508061351 59 0.0 0.0 0.00 0.00 0.00 10 1010.5
20260508060351 59 0.0 0.0 0.00 0.00 0.00 10 1010.9
20260508055351 58 0.0 0.0 0.00 0.00 0.00 10 1010.9
20260508054352 58 0.0 0.0 0.00 0.00 0.00 10 1010.9
20260508053351 58 0.0 0.0 0.00 0.00 0.00 10 1010.9
20260508052351 58 0.0 0.0 0.00 0.00 0.00 10 1011.0
20260508051351 58 0.0 0.0 0.00 0.00 0.00 10 1010.9
20260508050351 58 0.0 0.0 0.00 0.00 0.00 10 1010.7
20260508045351 58 0.0 0.0 0.00 0.00 0.00 10 1010.7
20260508044351 58 0.0 0.0 0.00 0.00 0.00 10 1010.6
20260508043351 58 0.0 0.0 0.00 0.00 0.00 10 1010.9
20260508042351 58 0.0 0.0 0.00 0.00 0.00 10 1010.6
20260508041351 58 0.0 0.0 0.00 0.00 0.00 10 1010.6
20260508040351 58 0.0 0.0 0.00 0.00 0.00 10 1010.7
20260508035351 58 0.0 0.0 0.00 0.00 0.00 10 1010.8
20260508034351 58 0.0 0.0 0.00 0.00 0.00 10 1010.6
20260508033351 58 0.0 0.0 0.00 0.00 0.00 10 1010.5
20260508032351 59 0.0 0.0 0.00 0.00 0.00 10 1010.5
20260508031351 59 0.0 0.0 0.00 0.00 0.00 10 1010.4
20260508030351 59 0.0 0.0 0.00 0.00 0.00 10 1010.4
20260508025351 58 0.0 0.0 0.00 0.00 0.00 10 1010.6
20260508024351 58 0.0 0.0 0.00 0.00 0.00 10 1010.3
20260508023351 58 0.0 0.0 0.00 0.00 0.00 10 1010.2
20260508022351 59 0.0 0.0 0.00 0.00 0.00 10 1010.2
20260508021351 59 0.0 0.0 0.00 0.00 0.00 10 1010.1
20260508020351 60 0.0 0.0 0.00 0.00 0.00 10 1009.9
20260508015351 60 0.0 0.0 0.00 0.00 0.00 10 1009.7
20260508014351 60 0.0 0.0 0.00 0.00 0.00 10 1009.7
20260508013351 61 0.0 0.0 0.00 0.00 0.00 10 1009.5